Location: Luz Observatory
(34.5000°N, 117.2833°W)
Time: 04:08:55
(UTC-07:00)

Okean 3 Rocket - Visible Passes

Search period start: 26 May 2017 00:00
Search period end: 05 June 2017 00:00
Orbit: 616 x 644 km, 82.5° (Epoch: 25 May)

Date Brightness Start Highest point End Pass type
(mag) Time Alt. Az. Time Alt. Az. Time Alt. Az.
26 May 5.6 01:37:24 26° NNW 01:37:24 26° NNW 01:39:29 10° N visible
27 May 6.3 00:20:44 13° NE 00:20:44 13° NE 00:21:29 10° NE visible
27 May 5.8 01:58:06 19° NW 01:58:06 19° NW 01:59:51 10° NNW visible
28 May 5.9 00:41:26 21° NNE 00:41:26 21° NNE 00:43:06 10° NNE visible
28 May 6.3 02:18:48 11° NW 02:18:48 11° NW 02:19:18 10° NW visible
29 May 5.6 01:02:07 26° N 01:02:07 26° N 01:04:10 10° N visible
29 May 6.4 23:45:25 10° NE 23:45:25 10° NE 23:45:26 10° NE visible
30 May 5.7 01:22:47 23° NNW 01:22:47 23° NNW 01:24:46 10° N visible
31 May 6.0 00:06:04 18° NE 00:06:04 18° NE 00:07:30 10° NNE visible
31 May 6.1 01:43:27 15° NW 01:43:27 15° NW 01:44:45 10° NNW visible
01 Jun 5.6 00:26:44 26° NNE 00:26:44 26° NNE 00:28:46 10° NNE visible
02 Jun 5.6 00:47:22 27° NNW 00:47:22 27° NNW 00:49:34 10° N visible
02 Jun 6.0 23:30:37 15° NE 23:30:37 15° NE 23:31:44 10° NE visible
03 Jun 5.9 01:07:59 19° NW 01:07:59 19° NW 01:09:53 10° NNW visible
03 Jun 5.5 23:51:14 25° NNE 23:51:14 25° NNE 23:53:16 10° NNE visible
04 Jun 6.4 01:28:36 11° NW 01:28:36 11° NW 01:29:04 10° NW visible
